Regional Weather Roundup
Issued by NWS

Home | Current Version | Previous Version | Text Only | Print | Product List | Glossary Off
Versions: 1 2 3 4 5 6 7 8 9 10 11 12 13 14 15 16 17 18 19 20 21 22 23 24 25 26 27 28 29 30 31 32 33 34 35 36 37 38 39 40 41 42 43 44 45 46 47 48 49 50

000
ASUS43 KMPX 280510
RWRMN
WEATHER ROUNDUP FOR MINNESOTA
NATIONAL WEATHER SERVICE TWIN CITIES/CHANHASSEN MN
1200 AM CDT MON JUL 28 2014


NOTE: "FAIR" INDICATES FEW OR NO CLOUDS BELOW 12,000 FEET WITH NO
SIGNIFICANT WEATHER AND/OR OBSTRUCTIONS TO VISIBILITY. N/A MEANS
CURRENT SKY AND/OR WEATHER CONDITIONS ARE NOT AVAILABLE.

MNZ060>063-068>070-280600-
   Twin Cities Metro

CITY           SKY/WX    TMP DP  RH WIND       PRES   REMARKS
TWIN CITIES    CLOUDY    65  58  78 N7        30.13R
ST PAUL        CLOUDY    64  56  75 N3        30.12S
CRYSTAL        CLOUDY    65  56  72 N6        30.12R
BLAINE         CLOUDY    64  59  82 NW3       30.13R
LAKEVILLE      MOCLDY    61  55  82 CALM      30.13R
EDEN PRAIRIE   CLOUDY    65  58  78 N6        30.12R
SOUTH ST PAUL  CLOUDY    65  55  71 N3        30.12S
LAKE ELMO      CLOUDY    63  55  77 CALM      30.13R
$$
MNZ001>005-007-008-013>017-022>024-027-028-280600-
   Northwest Minnesota

CITY           SKY/WX    TMP DP  RH WIND       PRES   REMARKS
BEMIDJI        CLOUDY    59  55  85 NW6       30.18S
HALLOCK        CLEAR     59  54  82 N7        30.21S
ROSEAU         PTCLDY    57  52  82 NW6       30.20R
WARROAD        PTCLDY    57  54  88 NW6       30.19S
THIEF RVR FALL CLOUDY    61  57  88 NW6       30.21S
CROOKSTON      CLOUDY    61  57  88 N6        30.21S
FOSSTON        MOCLDY    57  54  88 NW5       30.21R
DETROIT LAKES  MOCLDY    61  59  94 N7        30.21S
MOORHEAD       MOCLDY    57  57 100 NW3       30.21S
PARK RAPIDS    CLOUDY    61  57  87 N8        30.19R
$$
MNZ006-009>011-018-025>026-280600-
   North Central Minnesota

CITY           SKY/WX    TMP DP  RH WIND       PRES   REMARKS
BAUDETTE       PTCLDY    55  53  93 CALM      30.18R
FLAG ISLAND    CLEAR     64  57  77 NW12      30.16S
INTL FALLS     CLEAR     50  48  93 CALM      30.15R
WASKISH        CLOUDY    63  55  77 NW6       30.17S
BIG FORK       MOCLDY    57  54  88 N2        30.16S
LONGVILLE      CLOUDY    63  55  77 CALM      30.16S
GRAND RAPIDS   CLOUDY    55  54  94 CALM      30.15S
CRANE LAKE     MOCLDY    48  48 100 CALM      30.16R
ORR            CLOUDY    55  54  94 CALM      30.13R
COOK           MOCLDY    52  52 100 NW1       30.15R
$$
MNZ012-019>021-037-280600-
   Northeast Minnesota

CITY           SKY/WX    TMP DP  RH WIND       PRES   REMARKS
DULUTH         PTCLDY    58  53  84 NW7       30.11S
ELY            CLEAR     52  48  87 CALM      30.13S
HIBBING        MOCLDY    55  51  86 NW5       30.14R
EVELETH        MOCLDY    59  52  77 N3        30.14S
DULUTH HARBOR  CLOUDY    63  57  82 N12       30.10R
TWO HARBORS    PTCLDY    57  50  77 N5        30.09R
SILVER BAY     CLEAR     54  54 100 CALM      30.10R
GRAND MARAIS     N/A     54  51  90 NW3       30.08S
G MARAIS ARPRT   N/A     54  46  76 W3        30.12S
$$
MNZ029>031-032-039>041-046>048-054>057-064-280600-
   West Central Minnesota

CITY           SKY/WX    TMP DP  RH WIND       PRES   REMARKS
FERGUS FALLS   CLOUDY    63  55  77 N6        30.20S
WHEATON        CLOUDY    59  55  88 NW6       30.22R
MORRIS         CLOUDY    63  57  82 NW7       30.19R
ALEXANDRIA     CLOUDY    62  59  90 NE3       30.20R
ELBOW LAKE     CLOUDY    62  58  87 N6        30.19S
WADENA         CLOUDY    61  57  88 CALM      30.18S
GLENWOOD       DRIZZLE   61  59  94 N10       30.19R
APPLETON       CLOUDY    63  55  77 N8        30.19R
BENSON         CLOUDY    61  57  88 N8        30.18S
ORTONVILLE     CLOUDY    63  55  77 N6        30.20S
MADISON        MOCLDY    64  57  77 NW8       30.20R
WILLMAR        CLOUDY    64  61  88 N9        30.18R
$$
MNZ033>034-036-042>043-049>051-058-059-280600-
   Central Minnesota

CITY           SKY/WX    TMP DP  RH WIND       PRES   REMARKS
ST CLOUD       CLOUDY    64  57  78 NW3       30.15R
SAUK CENTRE    LGT RAIN  62  60  94 N8        30.18R
PAYNESVILLE    CLOUDY    61  59  94 NW5       30.17R
AITKIN         CLOUDY    63  55  77 CALM      30.14R
PINE RIVER     CLOUDY    63  57  82 NW3       30.20R
BRAINERD       CLOUDY    64  55  72 N9        30.17R
STAPLES        CLOUDY    61  57  88 NW6       30.18R
LONG PRAIRIE   CLOUDY    61  57  88 NW5       30.18R
LITTLE FALLS   CLOUDY    63  54  72 CALM      30.16S
LITCHFIELD       N/A     64  64 100 CALM      30.16S
BUFFALO        CLOUDY    64  57  78 N3        30.15S
MAPLE LAKE     MOCLDY    63  59  89 CALM      30.16R
$$
MNZ037-044-045-052-053-280600-
   East Central Minnesota

CITY           SKY/WX    TMP DP  RH WIND       PRES   REMARKS
PRINCETON      CLOUDY    63  59  88 CALM      30.14S
MORA           MOCLDY    59  54  82 CALM      30.15S
CAMBRIDGE      CLOUDY    64  54  68 CALM      30.12S
RUSH CITY      CLOUDY    60  56  87 CALM      30.13S
MOOSE LAKE     CLEAR     57  54  88 NW6       30.11S
HINCKLEY       FAIR      57  55  94 CALM      30.13R
CLOQUET        CLEAR     55  54  94 NW5       30.12S
MCGREGOR       CLOUDY    57  55  94 NW3       30.15R
$$
MNZ071>073-080-081-089-090-097-098-280600-
   Southwest Minnesota

CITY           SKY/WX    TMP DP  RH WIND       PRES   REMARKS
MONTEVIDEO     CLOUDY    63  57  82 N9        30.19S
GRANITE FALLS  CLOUDY    63  58  83 NW9       30.19R
CANBY          CLOUDY    62  56  82 NW6       30.22S
MARSHALL       CLOUDY    61  54  77 NW8       30.19R
REDWOOD FALLS  CLOUDY    63  57  81 NW10      30.16R
OLIVIA         CLOUDY    63  57  82 NW6       30.16R
PIPESTONE      CLEAR     59  54  82 N6        30.21S
WINDOM         PTCLDY    61  55  82 NW13      30.17S
WORTHINGTON    CLEAR     57  54  88 NW9       30.20S
JACKSON        CLEAR     59  55  88 NW9       30.18R
TRACY          CLOUDY    61  57  85 NW9       30.20R
SLAYTON        CLEAR     57  55  93 CALM      30.21S
$$
MNZ065>067-074>077-082>085-091>093-280600-
   South Central Minnesota

CITY           SKY/WX    TMP DP  RH WIND       PRES   REMARKS
MANKATO        CLOUDY    64  59  82 NW7       30.14R
NEW ULM        CLOUDY    64  64 100 NW7       30.15R
ST JAMES       CLOUDY    63  63 100 W9        30.16S
FAIRMONT       CLOUDY    63  57  82 NW9G16    30.15R
GLENCOE        CLOUDY    64  58  83 N3        30.14R
FARIBAULT      CLOUDY    66  54  63 CALM      30.13R
OWATONNA       PTCLDY    63  55  77 NE6       30.13R
WASECA         CLOUDY    61  54  77 N5        30.15R
ALBERT LEA     CLOUDY    63  55  77 NE8       30.12R
$$
MNZ078>079-086>088-094>096-280600-
   Southeast Minnesota

CITY           SKY/WX    TMP DP  RH WIND       PRES   REMARKS
ROCHESTER      CLEAR     59  54  83 N7        30.12R
RED WING       PTCLDY    57  55  94 CALM      30.10S
STANTON        PTCLDY    60  55  83 N3        30.11S
DODGE CENTER   PTCLDY    59  57  94 N6        30.12S
WINONA         CLEAR     59  55  88 N5        30.09R
AUSTIN         CLEAR     61  55  82 N6        30.11R
PRESTON        CLEAR     57  58 100 N5        30.10R
$$
ABBREVIATIONS USED IN REMARKS
   TC - TEMPERATURES IN CELSIUS
  WCI - WIND CHILL INDEX
   HX - HEAT INDEX
  VSB - VISIBILITY
$$


USA.gov is the U.S. government's official web portal to all federal, state and local government web resources and services.